Regional Weather Roundup
Issued by NWS

Home | Current Version | Previous Version | Text Only | Print | Product List | Glossary On
Versions: 1 2 3 4 5 6 7 8 9 10 11 12 13 14 15 16 17 18 19 20 21 22 23 24 25 26 27 28 29 30 31 32 33 34 35 36 37 38 39 40 41 42 43 44 45 46 47 48 49 50
000
ASUS43 KBIS 061402
RWRND

NORTH DAKOTA REGIONAL WEATHER ROUNDUP
NATIONAL WEATHER SERVICE BISMARCK ND
900 AM CDT MON JUL 06 2015

NOTE: "FAIR" INDICATES FEW OR NO CLOUDS BELOW 12,000 FEET WITH NO
SIGNIFICANT WEATHER AND/OR OBSTRUCTIONS TO VISIBILITY.


NDZ001>003-009>011-017-061500-
NORTHWEST NORTH DAKOTA

CITY           SKY/WX    TMP DP  RH WIND       PRES   REMARKS
WILLISTON      PTSUNNY   58  52  80 NE10      30.19R HAZE
MINOT          CLOUDY    57  50  77 NW3       30.15R SMOKE
$$

NDZ018>021-031>035-040>046-061500-
SOUTHWEST NORTH DAKOTA

CITY           SKY/WX    TMP DP  RH WIND       PRES   REMARKS
BISMARCK       PTSUNNY   62  55  77 NW7       30.13R HAZE
DICKINSON      CLOUDY    60  52  74 NW7       30.17R
GARRISON         N/A     60  52  74 VRB5      30.15R
HETTINGER ARPT PTSUNNY   62  52  69 N8        30.19R
$$

NDZ004>008-012>016-024-026-027-054-061500-
NORTHEAST NORTH DAKOTA

CITY           SKY/WX    TMP DP  RH WIND       PRES   REMARKS
GRAND FORKS    CLOUDY    56  49  77 N13       30.08R
GRND FRKS AFB  PTSUNNY   56  48  75 N9        30.09R
DEVILS LAKE    MOSUNNY   57  48  72 N8        30.11R
$$

NDZ022-023-025-028>030-036>039-047>053-061500-
SOUTHEAST NORTH DAKOTA

CITY           SKY/WX    TMP DP  RH WIND       PRES   REMARKS
FARGO          MOSUNNY   62  51  67 N14G23    30.02R
JAMESTOWN      CLOUDY    59  53  80 NE8       30.09R HAZE
$$




USA.gov is the U.S. government's official web portal to all federal, state and local government web resources and services.